Location: Forst
(46.9333°N, 15.4333°E)
Time: 05:12:48
(UTC+00:00)

COSMOS 2428 - Pass Details

Date: 01 December 2020
Orbit: 848 x 855 km, 70.9° (Epoch: 18 January)

Event Time Altitude Azimuth Distance (km) Brightness Sun altitude
Rises 15:43:41 0° 243° (WSW) 3,419 8.9 -5.7°
Reaches altitude 10° 15:46:32 10° 256° (WSW) 2,486 6.8 -6.1°
Maximum altitude 15:51:18 27° 313° (NW) 1,609 4.5 -6.8°
Drops below altitude 10° 15:56:05 10° 9° (N) 2,494 4.8 -7.6°
Sets 15:58:57 0° 22° (NNE) 3,433 5.4 -8.0°
